Location: Banios
(43.0451°N, 0.2335°E)
Time: 02:44:12
(UTC+00:00)

Tiros 1 despin weight - All Passes

Search period start: 12 May 2021 00:00
Search period end: 22 May 2021 00:00
Orbit: 593 x 642 km, 48.2° (Epoch: 11 May)

Date Brightness Start Highest point End Pass type
(mag) Time Alt. Az. Time Alt. Az. Time Alt. Az.
12 May - 01:16:14 10° WNW 01:20:56 69° NNE 01:25:34 10° ESE visible
12 May - 02:58:05 10° WNW 03:02:19 35° SW 03:06:31 10° SSE visible
12 May - 18:48:08 10° SSE 18:50:41 15° SE 18:53:16 10° E daylight
12 May - 20:26:58 10° SW 20:31:35 65° SSE 20:36:15 10° ENE visible
12 May - 22:08:44 10° W 22:13:19 51° NNW 22:17:54 10° ENE visible
12 May - 23:50:54 10° WNW 23:55:27 47° N 23:59:59 10° E visible
13 May - 01:32:35 10° WNW 01:37:17 80° SSW 01:41:56 10° ESE visible
13 May - 03:15:01 10° W 03:18:20 19° SW 03:21:38 10° S visible
13 May - 19:02:45 10° SSW 19:06:39 27° SE 19:10:35 10° E daylight
13 May - 20:43:12 10° WSW 20:47:53 82° NNW 20:52:37 10° ENE visible
13 May - 22:25:20 10° WNW 22:29:51 45° N 22:34:22 10° ENE visible
14 May - 00:07:18 10° WNW 00:11:57 58° NNE 00:16:34 10° E visible
14 May - 01:49:00 10° WNW 01:53:31 49° SW 01:57:59 10° SE visible
14 May - 19:18:17 10° SW 19:22:44 47° SE 19:27:14 10° ENE daylight
14 May - 20:59:40 10° W 21:04:18 59° NNW 21:08:58 10° ENE visible
14 May - 22:41:53 10° WNW 22:46:24 44° N 22:50:54 10° ENE visible
15 May - 00:23:39 10° WNW 00:28:21 80° NNE 00:33:02 10° ESE visible
15 May - 02:05:39 10° W 02:09:37 28° SW 02:13:33 10° SSE night (unlit)
15 May - 17:54:42 10° S 17:57:56 19° SE 18:01:12 10° E daylight
15 May - 19:34:19 10° WSW 19:38:58 79° SSE 19:43:40 10° ENE daylight
15 May - 21:16:16 10° W 21:20:48 47° N 21:25:21 10° ENE visible
15 May - 22:58:20 10° WNW 23:02:55 50° N 23:07:30 10° E visible
16 May - 00:40:01 10° WNW 00:44:40 67° SSW 00:49:18 10° SE visible
16 May - 02:22:55 10° W 02:25:35 15° SW 02:28:14 10° SSW night (unlit)
16 May - 18:09:47 10° SSW 18:13:56 34° SE 18:18:09 10° ENE daylight
16 May - 19:50:40 10° WSW 19:55:19 71° NNW 20:00:01 10° ENE visible
16 May - 21:32:51 10° WNW 21:37:20 44° N 21:41:51 10° ENE visible
16 May - 23:14:43 10° WNW 23:19:24 65° NNE 23:24:04 10° ESE visible
17 May - 00:56:29 10° WNW 01:00:51 39° SW 01:05:11 10° SSE visible
17 May - 16:47:16 10° SSE 16:49:16 13° SE 16:51:17 10° ESE daylight
17 May - 18:25:33 10° SW 18:30:05 59° SSE 18:34:42 10° ENE daylight
17 May - 20:07:11 10° W 20:11:46 53° NNW 20:16:22 10° ENE visible
17 May - 21:49:22 10° WNW 21:53:53 46° N 21:58:25 10° E visible
17 May - 23:31:03 10° WNW 23:35:46 87° SSW 23:40:27 10° ESE visible
18 May - 01:13:17 10° W 01:16:54 22° SW 01:20:28 10° S visible
18 May - 17:01:31 10° S 17:05:12 24° SE 17:08:55 10° E daylight
18 May - 18:41:43 10° WSW 18:46:21 88° NNW 18:51:05 10° ENE daylight
18 May - 20:23:47 10° W 20:28:16 45° N 20:32:48 10° ENE visible
18 May - 22:05:46 10° WNW 22:10:24 55° NNE 22:15:01 10° E visible
18 May - 23:47:26 10° WNW 23:52:01 54° SSW 23:56:35 10° SE visible
19 May - 01:31:16 10° WSW 01:32:48 11° SW 01:34:21 10° SSW night (unlit)
19 May - 17:16:55 10° SW 17:21:15 42° SE 17:25:40 10° ENE daylight
19 May - 18:58:09 10° W 19:02:45 62° NNW 19:07:25 10° ENE daylight
19 May - 20:40:21 10° WNW 20:44:50 44° N 20:49:20 10° ENE visible
19 May - 22:22:07 10° WNW 22:26:49 75° NNE 22:31:31 10° ESE visible
20 May - 00:04:01 10° WNW 00:08:09 31° SW 00:12:15 10° SSE visible
20 May - 15:53:37 10° S 15:56:30 17° SE 15:59:24 10° E daylight
20 May - 17:32:52 10° SW 17:37:27 72° SSE 17:42:07 10° ENE daylight
20 May - 19:14:43 10° W 19:19:14 49° N 19:23:47 10° ENE daylight
20 May - 20:56:48 10° WNW 21:01:22 49° N 21:05:56 10° E visible
20 May - 22:38:27 10° WNW 22:43:09 73° SSW 22:47:49 10° SE visible
21 May - 00:21:05 10° W 00:24:09 17° SW 00:27:11 10° S visible
21 May - 16:08:30 10° SSW 16:12:28 30° SE 16:16:31 10° E daylight
21 May - 17:49:10 10° WSW 17:53:46 76° NNW 17:58:27 10° ENE daylight
21 May - 19:31:18 10° WNW 19:35:46 44° N 19:40:16 10° ENE daylight
21 May - 21:13:11 10° WNW 21:17:50 62° NNE 21:22:29 10° E visible
21 May - 22:54:54 10° WNW 22:59:21 43° SW 23:03:47 10° SE visible
